Wind_Speed
4 1 7 10 6 11 11 14 21 20 18 23 21 22 20 26 23 23 22 29 28 35 36 27 21 30 39 43 43 41 40 38 39 40 39 37 37 35 33 32 29 26 25 25
5 16 13 12 12 12 16 21 26 24 17 12 19 19 23 25 14 25 25 26 25 18 6 6 14 22 31 32 38 41 42 40 40 41 40 42 42 39 36 34 31 28 27 27
12 15 11 9 13 16 20 18 19 21 20 13 14 21 19 22 17 27 22 26 13 5 7 11 11 14 16 16 23 31 37 40 43 45 46 47 43 40 37 34 33 33 31 31
10 12 16 17 19 15 20 14 17 12 8 12 1 11 14 15 16 10 7 15 19 20 19 18 18 19 15 10 10 19 24 30 36 39 42 45 47 45 43 40 37 34 35 34
10 11 11 13 19 13 18 13 16 19 15 8 11 7 6 6 6 7 11 20 20 23 23 23 20 18 22 16 12 14 18 21 25 30 34 38 44 42 40 40 36 33 31 33
16 4 5 11 17 13 11 5 12 14 5 7 13 9 5 3 2 12 13 21 18 17 19 23 18 16 20 15 13 14 15 17 21 28 32 34 37 38 37 35 36 33 32 32
11 3 5 8 6 5 3 2 3 3 1 5 7 9 7 15 15 15 12 16 16 16 21 24 22 20 18 14 11 9 8 9 10 16 26 32 36 38 36 37 37 35 34 34
5 9 4 4 5 5 5 6 4 3 1 3 9 4 4 15 16 20 20 15 16 22 26 23 24 22 22 17 12 8 5 1 5 10 13 25 35 39 40 42 42 41 36 33
6 6 3 11 16 6 2 4 6 7 5 2 2 4 11 11 12 15 18 11 20 25 25 29 27 26 25 22 18 14 9 8 9 12 17 22 24 35 40 41 42 40 38 34
4 7 4 7 0 3 4 3 3 1 3 4 1 6 6 11 11 8 13 14 17 26 28 31 37 34 30 25 21 17 14 12 9 11 15 25 31 32 37 41 43 42 39 35
10 5 7 3 3 2 4 4 4 4 3 2 2 3 6 7 6 9 7 19 30 31 37 39 38 37 35 30 26 20 19 17 9 7 6 12 22 26 26 35 38 36 36 34
5 4 5 8 4 4 2 8 4 2 1 2 3 4 7 8 8 12 17 26 35 30 34 37 37 35 38 36 32 27 22 20 17 11 5 3 10 14 22 26 30 29 32 32
5 4 6 6 1 1 2 6 6 4 2 4 1 3 5 5 10 17 15 22 25 22 30 33 33 37 37 35 36 34 30 25 21 17 11 7 5 11 15 14 23 27 29 31
4 4 3 7 12 10 7 6 2 3 2 8 7 10 7 9 12 14 20 24 28 26 23 30 34 34 33 34 34 35 34 30 24 20 16 12 8 5 10 18 19 21 28 32
2 3 4 11 14 15 20 17 5 10 11 7 9 11 9 10 12 14 18 22 22 21 23 28 32 32 33 32 33 33 33 35 32 24 19 16 14 9 8 13 17 22 28 29
4 4 2 4 16 20 18 22 22 17 11 10 12 9 8 13 14 18 18 17 18 20 20 21 26 28 31 32 32 30 31 33 34 34 28 23 20 17 11 8 8 20 29 29
3 3 3 2 7 5 11 16 17 14 20 7 7 5 6 10 15 18 18 20 21 23 25 26 26 26 26 29 28 29 29 29 31 34 35 31 26 23 20 15 8 11 12 23
4 5 2 2 1 5 2 11 8 18 16 14 11 9 10 13 16 18 19 17 19 23 22 21 22 22 23 22 26 22 24 26 28 30 30 31 32 30 27 23 17 13 6 4
4 2 2 2 5 5 3 7 6 6 9 14 5 5 5 5 5 18 21 18 17 20 20 19 19 19 23 22 24 24 24 24 26 28 27 27 27 28 28 30 27 24 20 15
4 9 2 3 3 2 4 15 12 5 4 12 11 9 7 7 3 3 15 11 13 18 19 17 16 17 19 21 24 27 30 28 28 25 23 21 21 22 24 24 24 23 23 21
4 3 6 4 3 4 11 13 4 2 2 7 10 10 15 6 6 8 11 11 13 17 18 17 15 19 19 19 23 27 29 33 28 23 20 19 19 20 20 18 18 19 19 18
4 3 3 2 3 2 20 4 3 4 8 8 9 10 15 12 10 10 9 10 13 16 18 18 15 16 17 18 20 23 25 24 24 23 22 22 22 20 18 16 15 15 16 17
3 3 2 4 3 5 13 15 13 11 11 9 10 9 9 11 11 7 8 11 14 17 18 17 15 14 15 17 19 21 20 19 19 21 24 24 22 22 20 17 17 16 15 16
3 6 3 2 4 8 8 11 11 12 11 10 9 8 8 9 6 6 8 11 14 16 17 16 14 16 17 18 17 17 16 17 18 19 20 22 23 22 20 18 18 17 18 17
2 5 3 4 7 8 7 9 10 12 10 9 8 8 8 3 4 5 7 9 11 13 14 13 14 15 16 16 16 17 17 16 17 17 18 19 19 20 19 17 16 16 16 15
5 3 1 1 8 5 5 8 6 8 8 8 6 6 4 4 4 5 6 8 9 11 12 12 13 11 13 14 15 15 16 17 17 16 16 16 16 17 16 15 14 13 13 10
Wind_Direction
243 221 233 253 218 248 260 270 274 263 257 269 273 280 277 286 274 260 280 264 248 240 251 253 243 234 223 225 228 232 229 229 227 226 226 228 224 221 221 222 222 222 224 225
296 260 256 241 246 257 262 264 262 276 267 271 284 280 275 273 262 256 256 276 253 241 278 227 235 233 234 237 233 231 234 233 234 229 229 230 228 224 223 221 223 227 228 228
247 257 275 237 255 263 256 255 269 272 276 275 283 276 269 274 254 253 248 258 264 200 151 123 157 185 201 214 220 224 234 237 233 230 225 222 223 224 223 225 229 231 229 229
264 278 250 254 257 255 265 255 257 282 305 275 90 295 273 274 269 250 233 109 96 106 111 106 103 112 124 125 174 198 213 227 229 225 227 225 224 221 227 227 227 230 230 230
259 283 274 274 259 256 275 263 243 249 259 291 273 262 277 282 260 68 78 73 67 87 96 92 81 80 97 104 133 159 182 199 208 212 222 230 226 229 234 231 232 235 236 235
255 240 241 236 256 245 255 271 243 250 242 246 237 224 268 286 72 83 53 45 48 70 72 81 72 72 85 88 98 117 158 181 193 202 211 225 229 233 235 236 241 239 240 238
305 206 253 217 267 229 186 23 317 282 317 239 195 197 277 64 64 79 61 45 39 43 65 66 56 51 64 65 64 75 103 151 180 206 209 215 225 230 231 240 243 241 241 240
311 322 186 201 213 209 206 172 210 258 251 271 160 225 68 77 73 72 63 53 56 51 49 53 50 48 51 44 38 27 1 42 214 225 219 221 224 226 229 235 241 243 245 248
302 275 321 283 263 141 291 183 236 285 297 256 156 95 64 56 49 62 51 41 52 50 46 45 49 47 48 46 37 22 358 318 283 260 245 236 234 234 234 235 242 245 247 249
278 284 268 290 257 199 242 323 340 87 297 335 328 60 38 31 24 18 71 33 44 47 43 43 45 42 46 45 46 36 32 19 345 307 259 244 239 237 239 235 235 241 246 249
287 215 299 311 33 316 332 305 220 211 167 107 8 78 16 12 15 43 27 56 40 33 39 40 44 40 42 40 37 31 38 33 17 352 312 253 236 237 241 243 241 242 246 250
300 288 280 282 152 134 321 274 251 189 321 60 124 70 29 35 44 48 26 35 46 34 39 41 43 38 42 40 38 35 34 37 32 31 36 220 243 238 244 244 239 241 244 247
333 288 304 305 130 200 211 252 289 83 53 184 109 88 58 53 54 52 51 46 48 35 37 41 44 42 40 37 37 37 33 30 29 27 24 20 198 219 217 223 248 243 248 250
298 275 293 279 280 318 286 269 313 67 343 87 68 105 71 50 47 42 42 46 38 32 28 34 39 41 39 37 36 38 38 34 33 31 23 11 354 281 253 236 235 255 256 252
10 281 7 37 46 47 39 30 137 86 43 49 87 78 58 45 47 39 44 44 41 32 28 29 31 33 34 35 35 37 39 39 36 32 34 27 11 352 261 249 254 246 248 261
8 315 300 60 68 45 43 30 44 66 80 92 92 77 51 50 52 48 45 52 38 33 29 35 32 32 31 33 33 35 38 42 43 40 37 40 31 19 350 276 264 232 223 218
281 313 315 328 10 318 36 13 32 49 32 19 55 67 66 55 46 33 29 40 34 29 32 35 33 28 27 28 28 33 36 40 42 46 43 39 45 42 30 7 321 254 206 209
258 294 265 273 103 43 113 26 31 58 34 30 74 79 86 82 59 40 37 43 37 32 33 36 33 31 29 29 31 33 40 42 44 44 45 45 44 50 52 48 36 37 35 90
52 295 285 329 53 123 78 21 335 13 44 18 71 112 117 113 37 32 40 46 36 32 30 31 32 30 29 33 36 36 42 43 43 40 37 40 45 44 47 56 57 56 50 41
57 58 335 81 76 83 37 330 318 289 62 25 34 28 353 224 46 3 17 48 34 25 26 28 36 34 32 30 39 39 40 39 39 35 32 35 37 44 46 43 46 50 58 65
344 21 20 12 96 85 346 325 335 256 90 46 51 46 50 77 79 55 72 46 27 22 23 28 36 40 34 29 34 38 38 37 33 30 28 31 36 41 40 47 48 46 50 58
22 349 16 328 71 48 353 28 65 95 98 91 77 78 84 86 91 88 63 42 29 25 26 31 37 42 39 35 35 38 40 35 34 36 37 36 34 35 39 43 47 57 57 55
39 25 53 18 88 73 51 68 75 90 67 100 94 94 99 105 100 85 50 30 23 22 24 29 36 40 40 35 32 36 36 30 28 30 36 38 38 38 40 39 47 50 49 58
30 32 85 128 93 88 78 78 84 87 87 85 103 121 124 123 100 60 33 25 20 20 25 27 33 38 39 37 34 34 29 27 23 27 31 33 36 38 40 47 51 55 56 56
339 328 86 73 106 101 75 88 82 111 94 88 112 121 122 101 72 36 26 21 19 19 25 25 30 34 34 30 30 29 27 26 25 23 27 29 31 33 36 37 44 51 61 59
359 6 3 168 148 103 126 108 110 115 111 100 97 102 80 45 38 15 16 24 27 29 28 28 30 28 29 25 25 24 23 24 24 23 25 24 24 27 31 34 35 38 41 44
Height
1466 1470 1471 1463 1463 1461 1461 1460 1454 1445 1448 1442 1436 1430 1426 1413 1414 1406 1403 1400 1401 1401 1403 1404 1407 1409 1413 1418 1421 1423 1425 1429 1432 1436 1441 1445 1449 1452 1456 1459 1462 1466 1469 1472
1466 1460 1456 1454 1454 1453 1452 1452 1444 1436 1436 1440 1432 1425 1416 1409 1406 1398 1395 1395 1395 1396 1398 1397 1396 1399 1403 1405 1411 1416 1419 1422 1426 1429 1433 1437 1442 1447 1451 1454 1459 1463 1465 1467
1464 1450 1448 1451 1449 1448 1442 1447 1442 1440 1430 1425 1427 1427 1408 1397 1396 1387 1386 1388 1392 1389 1390 1394 1394 1393 1394 1398 1402 1408 1413 1417 1421 1424 1427 1431 1436 1442 1448 1451 1454 1456 1460 1463
1455 1445 1443 1444 1443 1443 1442 1434 1435 1433 1434 1433 1420 1423 1397 1392 1386 1381 1380 1386 1389 1387 1387 1390 1392 1392 1388 1391 1397 1401 1407 1410 1414 1418 1422 1425 1428 1433 1438 1443 1447 1452 1456 1459
1448 1444 1443 1442 1434 1435 1431 1426 1426 1423 1425 1432 1420 1427 1395 1387 1382 1383 1389 1390 1392 1389 1388 1388 1391 1392 1385 1391 1397 1400 1401 1404 1409 1413 1418 1422 1425 1431 1435 1441 1445 1448 1451 1454
1445 1440 1439 1430 1424 1427 1423 1422 1420 1421 1424 1424 1409 1410 1391 1385 1382 1395 1399 1396 1395 1394 1395 1388 1392 1393 1387 1394 1398 1398 1399 1403 1406 1410 1413 1418 1423 1427 1432 1437 1440 1442 1445 1448
1442 1432 1430 1426 1428 1421 1422 1426 1436 1426 1439 1412 1392 1406 1390 1397 1399 1400 1405 1406 1405 1402 1397 1391 1394 1394 1389 1392 1395 1396 1398 1401 1403 1407 1408 1412 1417 1422 1426 1429 1433 1436 1438 1440
1452 1427 1421 1419 1418 1417 1420 1423 1426 1422 1402 1393 1386 1398 1401 1409 1410 1407 1408 1412 1411 1404 1396 1399 1399 1400 1393 1393 1393 1393 1397 1397 1402 1404 1405 1409 1411 1414 1418 1422 1425 1429 1432 1435
1449 1442 1420 1417 1410 1416 1410 1416 1405 1416 1400 1399 1391 1399 1411 1417 1416 1412 1412 1417 1408 1403 1403 1401 1404 1402 1396 1395 1395 1396 1396 1395 1397 1399 1400 1403 1406 1409 1412 1416 1419 1423 1426 1430
1451 1443 1420 1410 1409 1411 1411 1408 1410 1412 1406 1423 1390 1399 1414 1420 1420 1421 1415 1413 1413 1405 1404 1405 1400 1400 1399 1401 1398 1399 1397 1395 1396 1395 1394 1395 1397 1400 1403 1407 1411 1414 1419 1423
1450 1449 1423 1411 1414 1419 1414 1409 1408 1404 1405 1417 1413 1417 1430 1431 1427 1423 1421 1408 1403 1407 1404 1403 1401 1403 1398 1395 1394 1398 1393 1393 1394 1393 1392 1391 1391 1394 1397 1400 1404 1409 1413 1416
1448 1443 1435 1418 1410 1412 1414 1409 1402 1407 1404 1404 1411 1429 1435 1436 1433 1426 1420 1410 1408 1415 1413 1410 1405 1410 1401 1400 1401 1398 1396 1394 1393 1391 1390 1389 1390 1391 1394 1396 1399 1403 1407 1410
1450 1438 1432 1417 1413 1412 1411 1405 1398 1401 1402 1405 1411 1430 1441 1441 1436 1433 1433 1429 1424 1430 1424 1423 1423 1413 1411 1411 1406 1400 1396 1393 1390 1388 1388 1389 1389 1389 1390 1391 1395 1398 1401 1403
1449 1442 1438 1432 1423 1420 1412 1402 1399 1404 1402 1408 1420 1433 1442 1443 1440 1440 1439 1437 1432 1432 1433 1428 1423 1422 1421 1417 1412 1407 1402 1399 1394 1391 1389 1388 1387 1387 1389 1389 1390 1393 1395 1397
1450 1444 1440 1438 1433 1425 1421 1411 1403 1407 1415 1418 1435 1441 1448 1448 1448 1447 1445 1443 1444 1444 1439 1433 1429 1427 1425 1420 1416 1412 1408 1402 1397 1394 1391 1390 1389 1388 1387 1386 1387 1388 1392 1392
1450 1446 1443 1437 1438 1434 1432 1429 1423 1422 1432 1437 1440 1450 1457 1457 1456 1454 1454 1454 1454 1449 1448 1445 1439 1434 1428 1424 1420 1418 1414 1408 1403 1398 1396 1391 1391 1387 1386 1386 1385 1384 1385 1386
1451 1447 1440 1438 1431 1433 1436 1450 1444 1442 1445 1442 1442 1457 1462 1461 1460 1460 1458 1455 1453 1450 1444 1442 1439 1437 1433 1430 1426 1421 1417 1413 1409 1404 1402 1399 1394 1389 1389 1386 1384 1386 1380 1382
1448 1445 1439 1435 1435 1445 1462 1463 1459 1458 1460 1457 1458 1463 1465 1465 1465 1465 1464 1460 1458 1457 1452 1449 1446 1445 1440 1436 1432 1428 1423 1419 1415 1412 1410 1406 1402 1398 1394 1391 1390 1388 1388 1387
1444 1444 1438 1434 1442 1457 1461 1468 1468 1463 1469 1469 1466 1467 1468 1467 1467 1468 1466 1463 1464 1461 1457 1453 1450 1447 1444 1440 1437 1432 1426 1424 1420 1418 1416 1413 1410 1407 1404 1399 1396 1395 1391 1389
1443 1446 1444 1439 1443 1452 1471 1469 1467 1466 1469 1476 1474 1472 1470 1469 1471 1476 1472 1470 1468 1465 1462 1458 1455 1452 1449 1447 1441 1436 1430 1427 1423 1422 1422 1420 1417 1412 1409 1407 1404 1401 1400 1400
1451 1451 1453 1449 1450 1465 1475 1469 1465 1461 1482 1479 1478 1477 1474 1475 1479 1479 1475 1473 1471 1468 1465 1461 1457 1455 1453 1450 1444 1438 1434 1430 1430 1430 1428 1425 1421 1418 1415 1413 1412 1410 1406 1403
1460 1457 1463 1457 1461 1472 1474 1468 1470 1480 1481 1481 1480 1480 1478 1479 1481 1480 1479 1477 1475 1472 1468 1464 1462 1459 1456 1454 1450 1445 1441 1441 1440 1437 1434 1429 1425 1422 1420 1419 1418 1415 1414 1411
1466 1468 1468 1472 1477 1482 1480 1479 1480 1480 1480 1481 1481 1482 1482 1483 1483 1484 1481 1479 1476 1473 1469 1467 1464 1462 1460 1457 1453 1450 1448 1447 1444 1441 1437 1433 1430 1427 1425 1425 1422 1420 1418 1415
1470 1469 1473 1478 1482 1482 1483 1483 1483 1484 1484 1484 1485 1486 1485 1485 1485 1484 1482 1479 1477 1475 1471 1469 1467 1465 1462 1459 1457 1455 1453 1450 1448 1445 1441 1437 1434 1432 1431 1429 1428 1426 1425 1423
1476 1473 1474 1480 1483 1484 1485 1486 1486 1485 1485 1485 1486 1487 1487 1486 1485 1484 1483 1481 1479 1477 1475 1473 1470 1467 1465 1463 1461 1458 1456 1453 1450 1448 1445 1443 1441 1438 1437 1436 1434 1433 1431 1431
1478 1477 1476 1482 1480 1483 1486 1487 1488 1487 1488 1488 1488 1487 1486 1486 1485 1484 1483 1482 1480 1479 1477 1474 1472 1470 1468 1466 1464 1461 1458 1456 1454 1451 1449 1447 1445 1443 1442 1441 1440 1438 1437 1435